STARLINK-3309 (50158 NORAD) Tracking and Keplerian Element Data

This shows tracking and keplerian element data for the satellite.

Feedback or suggestion? Click here.




ElementValue
Catalog50158
NameSTARLINK-3309
Epoch Orbit130
Epoch Day140.58334491
Epoch Year2022
RAAN15.0746
Inclination53.2161
Eccentricity0.0002065
Argument of Perigee36.7135
Mean Anonmoly354.8062
Mean Motion15.08838689
Decay Rate3.088E-05
L11 50158U 21125C 22140.58334491 .00003088 00000+0 21202-3 0 9994
L22 50158 53.2161 15.0746 0002065 36.7135 354.8062 15.08838689 1308

Live tracking and technical data element details for STARLINK-3309 (NORAD 50158). STARLINK-3309 can be tracked NOW for your location showing map with azimuth and elevation plus other details from your city location.

Track the satellite on the map from your city or location and see movement details for azimuth, elevation, latitude, longitude, range, height, and movement on the map or in text.







IsCatalogInMostPopularTable: catalog: 50158, numindb: 28
Update: records affected: 1



GetName: 50158 STARLINK-3309

Hit Count: updated at: Mon, 23 May 2022 21:43:21 GMT